GEFSNGP_con_maxscp_234.txt.gz
SCP
0 0 0 0 0 0 0 0 0 0 0 1 1 1 1 2 3 3 3 4 6 5 4 3 3 4 4 5 7 8 9 7 5 4 3 3 2 2 2 2 1 1 1 1
0 0 0 0 0 0 0 0 0 0 0 1 1 1 2 2 3 3 3 4 5 5 4 4 4 4 4 5 6 8 9 7 5 4 3 3 2 2 2 2 1 1 1 1
0 0 0 0 0 0 0 0 0 0 1 1 1 1 2 3 3 4 4 4 5 5 4 4 5 5 5 5 6 7 8 7 5 4 3 3 3 3 3 2 2 1 1 1
0 0 0 0 0 0 0 0 0 0 1 1 1 2 2 3 4 4 4 5 6 7 6 5 5 5 4 4 5 6 6 6 5 4 3 3 3 3 3 2 2 2 2 1
0 0 0 0 0 0 0 0 1 1 1 2 2 2 3 3 4 4 4 5 7 8 7 6 6 5 5 4 4 4 5 5 4 4 3 3 3 3 3 3 3 3 2 2
0 0 0 0 1 1 0 0 1 2 3 3 3 2 3 4 5 5 5 6 7 8 8 7 7 7 6 4 4 4 4 5 5 4 4 4 4 3 3 3 4 4 3 3
0 0 0 0 1 1 0 1 1 3 4 5 4 3 3 5 6 6 7 7 8 8 8 8 8 8 7 5 4 4 5 6 6 6 6 6 5 5 5 5 5 6 6 7
0 0 0 1 1 1 1 1 2 3 5 7 5 4 4 6 7 8 9 9 10 9 8 8 8 8 7 5 4 5 5 6 6 6 6 5 5 4 5 5 6 7 8 11
1 1 1 1 3 3 3 2 2 3 5 8 6 4 5 7 9 10 10 11 11 11 9 7 7 7 6 5 4 5 6 5 4 4 3 3 3 2 2 3 3 4 6 7
1 1 1 2 3 5 5 3 2 3 5 7 6 5 6 8 11 12 12 12 11 10 9 7 6 6 5 4 4 5 5 4 3 1 1 1 1 1 1 1 1 1 1 2
1 1 1 2 3 4 5 4 3 4 5 6 6 6 7 8 11 13 13 12 11 9 7 6 5 5 4 4 4 5 4 3 2 1 1 0 0 0 0 0 0 0 0 0
1 1 1 1 2 3 4 4 4 4 4 5 6 7 7 7 9 10 11 11 10 9 7 6 5 5 4 4 4 4 3 2 1 1 1 1 0 0 0 0 0 0 0 0
0 1 1 1 2 3 4 5 5 5 5 6 7 7 7 6 6 7 9 10 10 9 8 7 6 5 3 3 4 4 3 2 1 1 1 1 0 0 0 0 0 0 0 0
1 1 1 1 2 3 4 4 5 5 5 5 6 7 6 6 5 6 8 10 9 8 6 5 4 3 3 3 3 3 2 1 1 1 1 1 0 0 0 0 0 0 0 0
1 1 2 2 2 3 3 4 4 5 5 4 4 5 4 4 4 5 7 8 8 6 4 2 2 2 2 2 2 2 2 1 1 1 1 0 0 0 0 0 0 0 0 0
1 1 2 2 2 3 3 3 4 5 5 4 4 4 4 5 5 6 7 7 6 5 3 2 2 1 2 2 2 2 2 1 1 1 1 1 0 0 0 0 0 0 0 0
1 1 1 2 2 2 2 2 3 4 4 4 4 5 6 7 7 7 6 5 4 3 2 2 2 2 2 2 2 2 2 2 1 1 1 1 0 0 0 0 0 0 0 0
1 0 1 1 1 1 1 2 2 2 3 3 4 5 6 8 8 7 5 4 3 2 1 1 1 2 3 3 3 3 3 2 1 1 1 0 0 0 0 0 0 0 0 0
1 0 0 1 1 1 1 2 2 2 2 2 4 5 6 8 8 5 3 2 2 1 0 0 1 2 2 3 3 3 3 3 2 1 1 0 0 0 0 0 0 0 0 0
1 1 1 1 1 1 1 2 2 3 2 3 4 5 6 6 6 4 2 1 1 0 0 0 0 1 1 2 2 2 2 2 2 2 1 1 0 0 0 0 0 0 0 0
1 1 1 1 1 1 1 1 2 3 3 3 4 4 4 4 3 2 1 1 0 0 0 0 0 0 0 1 1 1 2 2 2 2 1 1 0 0 0 0 0 0 0 0
1 1 1 1 1 1 1 2 2 3 3 3 3 3 3 3 2 2 1 1 0 0 0 0 0 0 0 0 1 1 1 1 1 1 1 1 1 0 0 0 0 0 0 0
0 0 0 0 1 1 1 2 2 2 2 2 2 2 2 2 1 1 1 0 0 0 0 0 0 0 0 0 0 0 0 0 0 0 1 1 1 0 0 0 0 0 0 0
0 0 0 0 0 0 1 1 1 1 1 1 1 1 1 1 1 0 0 0 0 0 0 0 0 0 0 0 0 0 0 0 0 0 0 0 0 0 0 0 0 0 0 0
0 0 0 0 0 0 0 0 1 1 1 1 1 1 1 0 0 0 0 0 0 0 0 0 0 0 0 0 0 0 0 0 0 0 0 0 0 0 0 0 0 0 0 0
0 0 0 0 0 0 0 0 0 0 0 1 1 1 0 0 0 0 0 0 0 0 0 0 0 0 0 0 0 0 0 0 1 1 0 0 0 0 0 0 0 0 0 0
0 0 0 0 0 0 0 0 0 0 0 1 1 1 0 0 0 0 0 0 0 0 0 0 0 0 0 0 0 0 0 0 0 1 0 0 0 0 0 0 0 0 0 0

GEFSNGP_con_maxscp_240.txt.gz
SCP
0 0 0 0 0 0 0 0 0 0 0 1 1 2 3 3 3 2 2 2 3 3 4 4 4 5 5 5 5 4 4 5 5 6 6 6 6 6 6 5 4 4 3 3
0 0 0 0 0 0 0 0 0 0 0 1 2 2 3 3 3 2 2 2 3 3 4 4 5 6 6 5 5 5 5 5 6 7 7 6 6 6 6 5 4 3 3 3
0 0 0 0 0 0 0 0 0 1 1 1 2 2 3 3 3 2 2 3 4 4 4 5 5 6 6 6 5 5 5 6 8 8 7 6 5 5 5 4 4 4 4 4
0 0 0 0 0 0 0 0 1 1 1 1 1 2 2 3 3 3 3 4 4 5 5 5 6 6 6 6 6 7 7 8 8 9 8 7 6 5 4 4 4 5 5 6
0 0 0 0 0 0 0 1 1 2 2 2 2 2 3 3 4 4 4 4 5 5 5 6 7 7 7 7 7 9 9 9 10 10 9 8 7 6 4 4 5 6 6 6
0 0 0 0 1 1 1 1 1 2 3 3 3 3 3 3 4 5 5 5 6 6 6 7 8 8 7 7 8 10 11 11 12 12 10 9 8 7 5 5 5 6 6 6
1 1 1 1 1 1 1 1 1 2 3 3 4 3 3 4 5 6 6 7 7 8 8 8 8 8 8 8 9 11 13 13 14 13 12 11 10 8 6 6 6 6 6 6
1 1 1 2 2 1 1 2 2 2 2 3 4 4 5 5 7 8 9 10 11 11 10 9 8 8 8 9 10 12 14 14 14 14 13 12 11 10 8 8 7 7 8 8
1 1 2 2 2 2 2 2 2 3 3 3 3 5 7 10 12 14 15 16 16 15 14 11 9 9 10 11 11 12 13 13 13 14 13 12 11 10 9 8 8 8 8 7
1 1 2 2 2 2 3 3 4 4 5 4 4 6 10 15 18 19 19 19 17 16 15 14 13 13 13 12 11 11 11 12 12 12 11 10 8 7 6 5 5 5 5 5
2 2 2 2 3 3 3 4 5 6 5 5 4 6 10 15 17 17 17 16 14 13 15 16 17 15 14 12 11 11 11 11 10 9 8 7 5 4 3 2 2 2 2 2
2 3 3 3 4 4 4 5 6 7 6 5 5 6 8 10 11 11 10 11 11 12 13 14 14 13 12 13 14 14 13 11 9 7 5 5 4 3 2 1 0 0 1 1
3 3 4 4 4 4 4 5 7 7 7 6 6 6 6 6 6 6 7 9 10 12 12 12 11 11 12 15 17 16 13 10 7 5 4 3 3 2 1 0 0 0 0 0
4 4 5 5 5 4 4 5 6 7 7 6 6 5 4 4 4 6 8 9 10 11 12 12 11 11 12 15 16 15 12 10 7 5 4 3 2 2 1 1 0 0 0 0
5 5 5 5 5 4 4 4 5 6 5 5 4 4 4 5 6 7 8 10 11 11 12 12 11 10 10 11 12 12 11 9 7 5 3 3 2 2 2 1 1 0 0 0
5 5 5 5 5 4 4 4 4 5 4 4 3 4 5 6 7 8 9 9 10 11 12 12 11 9 8 7 8 8 8 6 5 4 3 3 3 3 2 1 1 1 0 0
4 4 4 4 4 4 5 4 4 4 4 3 3 4 6 7 9 10 10 11 11 12 12 11 10 8 6 5 5 5 5 4 4 5 5 4 3 3 2 1 1 1 1 0
3 3 3 3 4 5 5 5 4 3 3 3 3 4 6 8 10 10 10 11 11 11 10 9 8 6 5 4 3 3 4 4 4 6 6 4 2 2 1 1 1 1 1 1
3 3 2 2 3 4 5 4 4 3 2 2 3 4 5 6 7 7 7 8 8 8 7 7 6 5 4 3 3 3 3 3 3 4 3 2 1 1 1 1 1 1 1 1
3 3 2 2 3 3 3 3 4 3 3 2 2 3 3 3 4 4 5 5 5 5 4 4 5 4 4 3 3 3 3 2 2 1 1 1 1 1 1 1 0 0 0 0
3 3 3 3 3 3 3 3 4 4 3 2 2 2 2 2 3 4 5 5 4 4 3 3 4 4 3 3 2 2 3 2 2 1 1 2 2 1 1 1 1 0 0 0
3 3 2 2 3 3 3 3 3 3 3 3 2 2 2 3 3 4 5 5 3 2 2 3 3 2 2 2 2 2 2 2 2 2 2 2 2 2 1 1 1 1 0 0
3 3 3 3 3 3 3 3 3 3 3 3 3 3 3 2 2 3 3 3 2 2 2 2 2 1 1 1 1 1 1 1 2 2 2 2 2 1 1 1 1 1 1 1
4 4 4 4 4 3 3 3 3 3 3 3 3 2 2 2 2 1 2 2 1 1 2 1 1 0 1 1 1 1 0 1 1 2 2 1 1 1 1 1 1 1 1 1
5 5 5 4 3 3 3 3 3 3 3 3 2 2 2 1 1 1 2 2 1 1 1 1 0 0 1 1 1 1 0 0 1 1 1 1 1 1 1 1 1 1 1 1
5 5 4 3 2 2 2 2 2 2 2 2 1 1 1 1 1 1 1 2 2 1 1 1 1 0 0 0 1 1 1 1 1 1 1 1 1 1 1 1 1 1 1 1
5 5 4 2 2 2 2 2 2 2 1 1 1 1 0 0 0 1 1 2 2 2 2 2 1 0 0 0 1 1 1 1 1 1 0 1 1 1 1 1 1 1 1 1

GEFSNGP_con_maxscp_246.txt.gz
SCP
0 0 0 0 0 0 0 0 0 1 1 2 3 4 6 6 5 4 6 9 12 12 10 10 11 11 11 11 12 10 8 6 5 6 8 10 10 11 12 13 11 8 6 5
0 0 0 0 0 0 0 0 0 1 2 2 3 4 7 6 5 5 6 8 11 11 10 10 10 11 10 11 11 9 7 6 5 6 8 11 11 11 13 13 12 9 7 6
0 0 0 0 0 0 0 1 1 2 2 2 3 5 7 7 6 5 6 7 8 9 9 8 9 10 10 10 9 8 7 6 6 7 9 11 11 12 13 13 12 10 7 6
0 0 0 0 0 0 1 1 2 3 3 3 4 6 7 6 6 7 7 8 8 8 8 7 7 8 9 8 8 8 7 7 9 11 11 11 11 12 13 13 12 10 7 6
0 0 0 0 1 1 2 2 3 3 3 4 4 5 6 6 6 7 9 10 10 10 11 9 8 8 9 9 9 9 9 10 12 14 14 13 13 14 14 13 11 9 7 7
0 0 0 1 1 2 2 2 2 3 4 5 4 5 6 6 6 8 11 13 12 12 13 12 11 11 11 11 11 11 12 14 15 15 15 17 18 17 15 13 10 9 8 8
1 1 1 1 2 2 3 3 3 4 5 6 6 6 7 8 8 10 13 15 15 15 15 15 14 13 13 13 13 14 15 15 15 15 18 21 22 20 17 13 10 9 9 9
1 1 1 2 3 3 4 5 4 5 6 7 7 7 8 9 9 11 13 16 17 17 16 15 15 15 15 15 15 15 15 15 15 18 21 24 25 22 18 14 11 9 9 8
1 2 2 3 3 4 5 6 6 5 6 8 8 8 9 9 9 10 11 14 17 18 17 15 16 17 16 15 16 16 16 15 17 20 24 25 24 21 17 14 12 9 8 7
3 3 3 3 4 4 6 7 7 6 7 8 8 8 8 9 10 10 11 12 15 18 18 16 17 18 17 16 16 17 17 17 18 22 23 22 19 15 13 12 11 8 7 6
4 4 4 4 4 4 5 6 7 7 8 8 8 8 7 9 12 17 19 17 17 18 19 18 17 17 17 17 17 19 19 19 19 20 19 16 13 10 8 9 8 6 5 5
4 4 4 4 3 3 4 6 9 10 10 9 8 7 7 10 17 25 28 25 21 20 21 20 18 17 17 18 20 21 21 22 20 18 17 15 13 9 6 5 4 3 3 3
4 4 4 4 4 4 5 7 9 11 10 10 9 8 9 14 22 28 28 24 22 21 20 19 18 18 19 20 21 21 22 22 21 19 18 18 17 13 8 5 2 2 1 2
5 5 5 6 6 6 6 7 8 10 10 11 12 13 16 21 24 25 22 19 17 16 16 16 16 17 19 20 19 20 20 20 19 18 19 20 19 15 11 7 5 3 1 1
5 5 6 7 7 7 6 6 7 7 9 13 18 21 23 23 22 20 18 15 13 12 12 14 14 15 17 16 15 18 19 17 15 15 17 18 16 14 11 9 8 6 3 1
5 5 6 7 7 7 7 7 7 8 11 16 20 22 22 20 17 15 14 12 11 11 12 13 13 13 13 12 12 15 16 14 11 12 13 13 11 10 10 11 11 9 5 2
5 5 5 5 5 6 6 7 8 9 12 15 15 15 15 14 11 10 9 9 9 10 11 11 11 11 11 10 10 11 12 10 8 9 9 9 8 8 9 10 10 9 6 3
5 5 4 4 4 4 4 5 7 10 11 11 9 10 10 9 7 6 6 7 8 9 9 10 10 9 9 8 8 8 8 7 6 6 7 7 7 7 7 7 6 6 5 4
4 4 5 5 4 4 4 4 6 8 9 8 7 8 8 6 5 4 5 7 8 8 8 9 8 8 7 6 6 6 5 5 5 6 6 6 6 5 5 4 4 4 5 4
3 4 5 6 6 5 5 5 6 6 6 6 6 7 7 6 5 4 5 5 7 7 7 7 6 6 6 5 4 4 4 3 4 4 5 5 5 4 3 3 3 4 5 5
4 4 5 6 7 7 6 6 6 5 5 5 5 6 6 5 5 5 4 4 5 5 5 5 6 5 5 4 4 4 4 3 3 3 3 3 3 3 3 2 3 3 4 4
6 6 6 7 7 6 6 7 6 6 5 5 5 5 5 5 5 4 4 3 3 3 4 5 5 5 4 4 4 5 5 4 3 2 2 2 2 2 2 2 2 2 3 3
8 7 7 7 7 6 7 8 7 6 5 5 5 5 5 5 4 3 3 2 2 2 3 4 5 4 3 4 5 5 5 4 2 1 1 2 2 2 2 2 2 2 2 2
9 8 7 7 6 7 8 9 8 7 6 6 5 5 5 4 3 2 2 2 1 1 2 3 3 2 3 5 5 5 5 4 2 1 1 1 2 2 2 2 2 2 2 2
10 8 6 6 6 7 8 9 8 7 6 6 5 5 4 4 3 2 2 2 1 1 1 1 1 1 3 4 4 4 4 3 1 1 0 1 1 1 1 1 1 1 1 2
10 7 4 5 5 6 6 7 7 6 5 5 5 4 4 3 3 2 2 2 1 1 1 1 1 1 3 3 3 3 3 2 1 1 0 1 1 1 1 1 1 1 1 2
8 6 4 4 4 4 4 4 4 4 4 4 4 4 4 4 3 2 2 2 1 1 1 1 1 1 2 2 2 2 2 1 1 1 0 0 1 1 1 1 1 1 1 2

GEFSNGP_con_maxscp_252.txt.gz
SCP
0 0 0 0 0 0 0 0 1 1 2 2 2 3 6 7 6 4 4 4 4 4 3 3 4 4 4 4 5 6 6 6 5 3 3 2 2 1 2 2 3 3 3 2
0 0 0 0 0 0 0 1 1 1 2 2 3 4 5 6 6 5 5 5 6 5 4 4 4 4 5 5 6 6 6 6 5 4 3 2 2 2 2 3 3 3 2 2
0 0 0 0 0 1 1 2 2 2 2 3 4 4 5 5 5 5 5 6 7 6 5 4 4 5 6 7 7 7 6 6 5 4 3 3 3 3 4 4 3 3 2 2
0 0 0 0 1 1 2 3 4 3 3 5 5 5 5 4 5 5 5 6 7 6 6 6 6 7 8 9 8 7 6 5 5 5 4 4 4 4 5 5 4 3 2 2
0 0 0 0 1 2 3 5 6 5 5 6 6 6 5 4 5 5 5 6 6 6 8 10 10 11 12 11 9 7 6 6 5 5 5 5 5 5 6 6 6 4 3 3
0 0 0 1 1 2 3 4 6 6 6 6 6 5 4 4 5 5 5 6 7 9 11 12 13 14 13 11 9 8 7 7 7 7 6 6 6 6 7 7 6 5 4 4
0 0 0 1 1 1 2 3 3 4 5 6 5 5 5 6 6 7 7 8 10 11 12 12 14 14 12 10 9 9 9 9 9 8 8 7 7 7 8 8 7 5 5 5
0 0 0 1 1 1 1 2 2 3 4 5 6 6 8 10 11 10 10 12 15 15 13 13 14 14 12 10 10 11 11 10 10 9 9 8 8 9 9 8 7 6 5 5
1 1 1 1 1 1 1 2 3 4 5 6 8 9 11 12 14 14 15 19 22 21 18 17 16 15 13 13 13 13 12 10 9 9 9 9 10 11 11 9 7 6 5 4
1 1 1 1 1 2 2 3 4 5 7 8 9 11 12 13 14 17 22 27 30 28 24 21 19 17 15 15 14 13 12 10 9 9 10 11 12 13 12 10 7 6 4 4
2 2 2 2 3 4 5 6 6 8 9 9 9 10 12 13 14 17 26 33 35 33 28 23 19 16 15 15 15 14 11 10 9 9 10 11 12 12 11 9 6 5 4 4
1 1 2 2 4 6 7 8 9 9 9 8 8 8 10 11 12 14 22 32 37 35 29 23 17 14 14 15 15 14 12 10 8 8 9 10 10 10 9 7 4 3 3 3
1 1 2 2 4 6 7 8 9 10 8 7 6 6 7 8 9 11 17 26 31 30 26 22 17 14 13 13 13 13 11 10 8 7 7 8 9 10 10 8 6 3 2 1
1 2 2 4 5 7 8 8 9 9 9 7 6 6 6 7 8 9 13 18 22 22 21 20 18 16 14 12 12 11 10 10 9 8 6 6 7 9 12 12 10 6 2 1
2 3 5 7 9 9 9 9 8 9 9 7 7 6 6 7 8 9 12 14 16 16 15 16 16 15 13 12 11 10 10 10 10 8 6 4 5 7 10 13 13 10 4 1
3 5 9 11 11 10 9 9 8 8 7 6 6 7 7 8 9 10 11 12 12 11 10 10 10 10 9 9 9 9 10 10 9 8 6 4 4 5 7 11 13 11 6 3
4 6 10 11 11 9 8 7 8 7 6 5 5 7 8 9 9 9 9 8 8 7 7 6 5 5 5 6 7 9 10 10 9 8 6 5 4 4 5 8 10 10 7 3
3 4 6 7 7 7 6 5 6 6 6 5 5 5 6 7 7 6 5 5 5 4 4 3 3 3 3 4 6 8 9 9 8 7 6 4 3 3 4 5 7 8 6 3
3 3 5 5 5 5 5 4 4 5 6 5 5 5 5 4 4 3 3 3 3 3 2 2 2 2 2 3 5 7 8 8 7 6 4 3 2 2 2 3 4 5 5 3
3 4 5 5 5 5 6 5 5 6 6 6 6 5 4 4 3 3 3 2 2 2 2 1 1 2 2 3 4 5 6 6 5 4 3 2 2 1 2 2 3 4 4 3
3 4 5 5 6 7 7 7 8 8 7 7 6 5 5 4 4 3 3 2 2 2 2 1 2 2 2 2 2 3 3 3 3 3 2 2 2 1 2 2 3 3 3 2
2 3 5 7 8 9 10 10 10 10 9 8 7 5 5 4 4 4 3 3 2 2 2 2 2 2 2 2 2 2 2 2 3 2 2 2 2 2 2 2 2 2 2 2
2 3 5 8 10 11 12 12 12 11 10 8 7 6 5 5 4 4 3 3 3 2 2 1 1 1 2 2 2 2 2 2 2 2 2 1 2 2 1 1 1 1 1 1
3 4 6 9 11 12 13 13 14 13 11 9 7 6 5 5 5 4 4 3 2 2 1 1 1 1 1 1 2 2 2 1 2 2 1 1 1 1 1 1 0 0 0 0
4 5 7 8 9 10 12 15 16 15 12 9 7 6 5 5 5 4 3 2 1 1 1 1 1 0 1 1 1 1 1 1 1 1 1 1 1 1 1 0 0 0 0 0
4 4 4 5 4 5 7 11 14 14 11 8 7 5 5 4 4 4 3 2 1 1 1 1 1 0 0 1 1 1 1 1 1 1 1 1 1 1 1 0 0 0 0 0
2 2 2 2 1 2 3 7 10 11 10 7 6 5 4 4 4 3 2 2 2 1 1 1 1 0 0 1 1 1 1 1 1 1 1 1 1 1 0 0 0 0 0 0

GEFSNGP_con_maxscp_258.txt.gz
SCP
0 0 0 0 0 0 0 0 0 0 1 1 1 2 1 1 1 3 3 3 3 3 3 3 2 2 2 2 2 2 3 3 3 3 3 2 2 2 1 1 1 1 1 1
0 0 0 0 0 0 0 0 0 1 1 1 1 1 1 1 2 3 3 3 3 3 3 3 2 2 2 2 2 3 3 3 4 3 3 3 2 2 2 1 2 2 1 1
0 0 0 0 0 1 1 1 1 1 1 1 1 2 2 2 2 3 3 3 3 3 3 3 2 2 2 3 3 3 4 4 4 4 4 3 2 2 2 2 2 2 2 2
0 0 0 0 0 1 1 1 1 1 1 1 2 3 3 3 3 3 3 3 3 3 3 3 2 2 3 4 4 4 4 4 4 4 4 4 3 3 2 2 2 3 3 2
0 0 0 0 0 0 1 1 0 1 2 3 4 4 4 4 3 3 3 3 2 3 3 3 3 3 4 5 5 5 5 4 4 4 5 5 5 4 3 3 3 3 3 3
0 0 0 0 0 0 0 0 0 1 3 4 4 4 4 3 3 3 3 2 3 3 3 4 4 5 6 6 6 6 6 5 5 4 5 6 6 5 4 4 4 3 3 4
0 0 0 0 0 0 0 0 1 2 3 4 4 3 3 3 2 2 3 2 2 3 3 4 5 7 7 6 6 7 8 8 7 6 6 6 6 6 6 5 4 4 4 4
0 0 0 0 0 0 0 0 1 2 4 4 3 3 3 3 3 4 4 3 3 3 3 5 6 7 7 7 6 8 10 11 10 8 7 7 7 7 7 6 5 5 5 4
0 0 0 0 0 0 0 0 1 3 4 3 3 2 2 3 4 5 5 5 4 4 4 5 7 8 8 8 8 10 12 13 12 10 9 8 8 8 8 7 7 6 5 5
0 0 0 1 1 1 1 1 2 2 3 2 2 2 2 2 3 5 5 5 5 5 5 6 7 9 9 10 11 12 12 13 12 11 10 8 8 7 7 7 7 6 5 5
0 0 1 1 1 1 1 2 2 2 2 2 2 3 3 3 3 4 5 6 5 5 5 6 8 11 12 13 13 13 13 13 12 12 10 9 7 7 6 6 6 5 5 5
0 0 1 1 1 2 2 2 2 2 2 3 4 5 5 5 5 7 8 7 6 6 6 8 10 12 13 14 14 14 14 14 14 13 11 10 9 8 6 5 4 4 4 4
0 1 1 2 2 3 3 3 3 3 4 5 6 7 7 7 7 9 11 10 8 7 7 9 11 12 13 14 15 16 15 14 13 12 10 10 10 9 7 4 3 2 2 2
1 1 2 2 3 5 5 4 3 4 5 6 7 8 8 8 8 10 11 11 9 8 10 11 10 10 11 13 15 15 13 12 11 10 9 8 8 7 6 4 3 2 2 2
2 2 2 2 4 6 7 6 4 4 5 6 7 7 8 7 7 7 8 9 10 10 11 12 10 9 10 12 13 11 10 9 9 8 7 6 5 5 5 4 3 2 2 3
2 2 2 3 5 7 8 7 5 4 4 5 6 6 7 6 5 5 5 7 8 9 10 10 9 8 9 9 9 7 6 6 7 7 6 5 4 4 4 3 2 2 2 2
2 1 2 3 4 6 6 6 6 5 4 4 4 5 5 4 3 3 4 5 6 6 7 7 6 6 6 6 6 4 3 4 4 5 5 4 4 4 4 3 2 1 1 2
1 1 1 1 2 3 4 5 5 4 4 3 3 4 4 4 4 4 4 5 5 5 5 4 4 4 4 4 4 3 2 3 3 4 4 4 4 4 3 2 1 1 1 1
0 1 1 1 2 2 3 3 4 4 3 3 3 3 3 4 4 4 4 4 4 4 4 3 3 2 2 2 2 2 3 3 3 4 4 3 3 3 3 2 1 0 0 1
0 1 1 2 2 3 3 3 3 3 3 3 3 3 3 4 5 5 4 3 3 3 3 2 2 2 2 2 2 3 3 3 3 3 3 3 3 3 2 1 0 0 0 0
0 1 2 3 3 3 3 2 3 3 2 2 2 2 3 4 5 5 4 3 2 2 2 1 1 2 2 2 2 2 3 3 2 2 2 2 2 2 2 1 0 0 0 0
0 0 1 2 3 3 3 2 2 2 2 1 1 2 3 4 5 5 5 4 3 2 1 1 1 1 1 1 1 2 2 2 1 1 1 1 1 1 1 1 0 0 0 0
0 0 1 2 2 3 2 2 2 1 1 1 1 1 2 3 4 5 5 4 3 2 1 1 0 0 0 1 1 1 1 1 1 1 1 1 1 1 1 1 1 0 0 0
0 0 1 1 2 2 2 2 1 1 1 1 1 1 2 3 4 5 5 3 2 1 1 1 0 0 0 0 1 1 1 1 1 1 1 1 1 1 1 1 1 1 0 0
0 1 1 2 2 2 2 1 1 1 1 2 2 3 3 4 5 5 5 3 1 1 1 1 0 0 0 1 1 1 1 1 1 1 1 1 1 1 1 1 1 1 1 0
0 1 1 1 1 2 1 1 1 1 2 3 3 4 4 5 5 6 5 3 1 1 1 0 0 0 1 1 1 1 1 1 1 1 0 0 0 0 0 1 1 1 1 1
0 1 1 0 1 1 1 1 0 1 2 2 3 3 3 4 5 5 5 3 2 1 1 1 0 0 1 1 1 1 1 1 1 1 0 0 0 0 0 0 1 1 1 1

GEFSNGP_con_maxscp_264.txt.gz
SCP
0 0 0 0 0 1 1 1 0 0 1 2 2 2 3 5 5 4 3 3 4 4 5 5 7 8 10 12 12 10 8 6 5 6 10 14 16 14 10 6 4 4 4 4
0 0 0 0 0 0 0 0 0 1 1 2 2 2 3 4 4 3 3 3 3 4 5 6 7 9 11 12 13 11 8 6 5 6 9 13 15 13 10 7 5 5 4 4
0 0 0 0 0 0 0 0 0 1 1 1 2 2 2 3 3 3 3 3 3 4 4 5 7 8 10 12 12 11 9 7 6 6 8 11 13 12 9 8 6 5 4 4
0 0 0 0 0 0 0 1 1 1 1 1 1 2 2 3 3 4 4 4 4 4 4 5 6 8 9 10 11 10 9 7 6 6 7 9 10 10 10 9 8 6 5 5
0 0 0 0 1 0 1 1 1 1 1 1 1 2 3 5 6 5 5 4 4 4 5 6 8 9 10 11 11 10 10 8 7 7 7 8 9 10 10 10 9 7 7 7
0 0 0 0 1 1 1 1 1 1 2 1 1 2 4 6 6 5 4 3 4 4 5 7 9 11 13 14 13 11 10 9 8 9 9 9 10 10 11 10 9 8 8 8
0 0 0 0 1 1 1 1 2 2 2 2 2 3 5 6 5 3 3 3 4 4 5 7 9 11 13 14 12 10 8 8 9 10 10 11 11 12 12 11 9 9 9 9
0 0 0 1 1 1 2 2 2 2 2 2 3 5 6 4 3 3 3 3 3 4 5 6 8 10 10 10 9 7 7 7 9 10 10 11 13 14 14 13 12 12 12 11
1 1 1 1 2 2 2 2 2 2 3 3 4 5 4 3 2 3 3 4 3 4 5 7 8 7 7 7 6 6 6 7 8 9 10 11 12 13 14 15 15 15 14 13
1 1 1 2 2 3 3 3 2 2 3 3 3 3 3 2 3 3 4 5 5 5 6 8 8 7 7 7 7 6 6 7 8 9 10 10 10 10 11 13 14 15 14 12
2 2 2 2 3 3 3 3 2 2 2 3 3 2 2 3 3 4 5 6 6 6 8 10 10 10 9 8 8 7 6 7 8 10 10 10 9 8 8 9 10 10 9 8
2 2 2 2 3 3 2 2 2 2 2 2 2 3 3 3 4 5 6 7 7 8 10 12 14 13 11 9 8 8 8 8 8 10 11 11 9 8 6 5 4 4 3 3
2 2 2 2 2 2 2 2 2 2 2 2 3 3 4 4 4 5 6 8 9 10 13 15 16 15 11 9 8 9 10 10 10 11 13 12 10 8 6 3 1 1 1 1
2 2 2 3 3 3 3 2 2 3 3 3 3 4 4 5 5 5 7 8 10 11 13 16 17 15 12 9 9 10 12 13 12 12 13 12 10 8 6 4 2 2 1 1
3 3 4 5 6 5 4 3 3 3 3 3 3 4 6 6 6 6 7 7 9 10 12 14 16 16 13 11 12 13 15 14 12 11 10 9 8 6 5 4 3 3 2 2
4 4 6 8 7 6 4 3 3 3 4 5 5 5 7 8 8 8 7 7 8 10 11 12 13 14 14 13 14 15 14 11 9 8 8 7 6 5 4 3 3 4 3 3
3 5 7 8 7 5 4 4 3 4 5 7 7 6 7 8 8 8 7 7 9 10 10 11 11 11 12 11 12 11 10 7 7 8 7 7 6 5 4 4 4 4 4 3
2 4 6 6 5 5 5 4 4 5 6 7 6 5 5 6 6 6 6 7 8 9 10 9 9 9 8 8 8 8 6 6 6 7 6 5 5 4 4 4 4 4 4 3
1 2 4 4 4 5 6 6 5 5 5 6 5 5 5 4 4 4 5 6 7 8 7 7 6 6 6 6 6 6 5 5 5 5 4 4 4 4 5 4 3 3 3 2
1 1 2 2 3 4 6 6 5 5 5 5 5 5 5 5 5 5 5 5 5 6 5 5 4 5 5 5 5 5 5 5 5 4 4 4 4 4 4 3 2 2 2 2
1 1 1 2 2 4 5 6 6 5 4 4 4 4 5 6 6 6 5 5 4 4 4 4 5 5 5 5 5 5 5 5 5 4 4 4 3 3 3 2 2 1 1 1
1 1 2 3 2 3 4 5 6 6 5 4 4 3 3 4 5 5 5 4 3 3 3 4 4 4 4 5 5 5 5 5 4 4 3 3 2 2 2 2 1 1 1 1
1 2 3 5 4 3 3 4 5 5 5 4 3 3 2 2 3 3 4 3 2 1 2 3 3 3 4 4 5 4 4 4 3 3 2 2 2 1 1 1 1 1 1 1
1 1 3 6 6 4 3 3 3 3 4 3 3 3 2 2 2 2 2 2 1 1 1 2 2 2 3 3 3 3 3 3 2 2 2 1 1 1 1 1 1 1 1 1
1 1 2 4 5 4 3 2 2 2 3 3 3 3 3 2 2 3 2 2 1 1 1 1 1 1 2 2 2 2 2 2 2 2 2 2 1 1 1 1 1 1 1 1
1 1 1 3 3 3 2 2 2 2 3 3 4 4 3 3 3 3 3 3 3 2 2 2 1 1 1 1 1 1 2 2 2 2 2 2 2 2 2 2 1 1 2 2
1 1 1 2 3 2 2 1 2 2 3 4 4 4 4 3 2 2 2 4 5 4 3 2 2 1 1 1 1 1 2 2 2 2 2 2 2 2 2 2 2 2 2 2